Theta_e
341 344 342 343 342 341 336 337 336 336 335 335 334 334 332 334 334 336 337 345 343 343 342 341 342 342 344 347 349 348 348 347 347 346 344 344 344 344 343 342 343 344 344
344 343 343 341 339 339 338 337 335 335 334 334 334 334 333 334 334 336 336 338 341 342 342 340 341 342 343 347 348 348 348 346 346 346 344 344 344 344 343 343 343 343 341
345 345 342 341 340 342 339 337 336 336 333 333 331 333 334 333 334 336 335 338 337 341 341 341 340 342 343 346 348 348 348 346 346 345 344 344 344 343 343 343 342 341 338
345 344 341 339 342 341 339 336 334 332 332 331 330 331 332 333 333 335 334 334 335 334 339 341 342 343 343 345 348 348 348 346 346 344 344 343 343 342 343 343 341 338 335
344 342 339 339 343 339 337 335 333 332 331 329 329 330 331 331 332 333 333 334 335 333 334 338 341 343 344 346 348 348 348 346 344 343 343 343 342 341 341 340 338 335 334
343 342 340 341 341 337 335 334 332 332 330 328 330 328 331 332 333 330 330 334 332 331 334 337 337 338 343 347 348 348 348 347 345 344 342 341 340 341 340 339 337 335 333
342 343 340 340 338 336 334 333 332 330 328 329 326 327 327 330 330 330 332 331 330 331 332 338 335 334 337 345 346 349 347 348 345 344 340 339 340 339 339 338 337 335 333
342 336 339 337 338 335 333 330 330 328 327 330 323 322 317 323 327 330 330 330 329 332 333 337 336 338 336 338 341 346 347 347 346 344 340 338 339 338 338 337 336 333 332
340 340 339 337 336 334 332 330 330 328 324 329 327 322 315 314 319 326 329 330 330 332 333 335 336 337 337 337 340 345 344 344 345 342 339 338 338 338 338 336 335 333 331
339 339 338 336 336 335 333 333 332 330 327 323 326 327 326 323 317 315 324 326 328 330 331 332 334 336 338 338 343 344 339 340 343 341 340 337 336 335 334 333 333 331 330
339 338 338 337 336 335 334 333 332 330 329 326 325 325 325 324 324 319 315 320 325 328 330 332 334 335 337 338 336 335 328 335 336 336 336 335 332 331 330 329 332 332 330
340 338 337 336 336 335 334 333 332 331 330 329 328 327 326 321 320 319 313 320 322 327 330 334 332 334 337 335 339 333 330 332 330 329 329 331 332 331 330 330 333 332 331
336 337 337 335 335 336 335 333 333 331 332 328 328 327 330 328 327 324 321 323 321 325 326 330 331 334 334 336 336 334 332 327 326 325 326 327 330 329 329 331 332 331 330
336 337 337 336 336 336 335 335 334 333 332 329 328 329 329 329 329 328 325 322 318 321 323 322 326 332 332 335 334 332 328 325 324 323 324 325 326 328 329 330 330 330 330
335 337 336 336 336 335 334 333 332 333 333 331 328 330 329 330 333 331 330 327 321 316 316 319 320 328 329 332 329 326 325 324 324 322 322 322 323 325 325 326 326 327 328
332 336 336 336 334 335 335 332 333 332 333 331 329 328 328 330 328 329 328 327 325 320 314 321 321 324 326 326 327 324 324 325 323 322 322 321 321 321 322 323 324 325 324
331 333 334 334 334 333 334 333 332 331 327 326 327 327 327 328 329 326 326 326 323 321 316 319 322 324 323 323 324 325 326 325 323 321 322 320 318 318 320 320 321 320 320
334 331 331 333 333 332 331 331 329 331 327 324 325 327 326 328 327 328 325 324 322 322 319 315 319 321 322 323 323 323 324 325 323 321 319 318 317 317 315 314 313 313 313
332 330 329 332 332 331 331 332 331 331 330 327 325 324 325 326 326 325 325 323 321 321 321 318 318 321 321 322 321 322 320 321 322 320 316 315 314 313 311 310 309 308 307
330 329 331 333 332 331 331 331 331 331 328 328 327 324 325 326 325 325 324 323 321 320 320 319 318 317 318 319 320 318 317 320 319 320 315 313 311 309 308 307 307 306 303
331 332 332 332 333 332 328 328 332 330 328 328 328 327 326 325 322 324 324 321 321 321 320 318 316 316 316 317 315 315 315 316 315 313 309 308 307 307 306 307 307 305 302
333 332 333 331 332 327 309 310 322 331 330 328 324 326 324 321 317 313 316 316 321 321 319 318 317 316 316 316 315 316 315 315 310 314 312 309 309 308 304 301 303 301 300
332 332 332 333 329 326 306 303 308 332 331 327 327 328 328 326 323 321 312 312 312 312 316 321 318 318 316 317 317 314 315 316 314 317 313 308 307 301 300 299 300 299 298
333 333 333 333 330 321 304 303 305 332 331 330 331 329 328 325 324 325 324 322 323 323 323 323 322 321 321 321 320 316 321 320 318 317 315 306 305 301 300 297 299 298 297
330 331 333 333 329 324 305 303 315 332 330 330 331 330 329 326 307 310 324 322 321 320 311 310 308 306 305 310 317 323 319 314 312 313 316 309 305 302 299 297 296 298 297
335 334 331 331 319 326 304 302 315 331 328 328 328 321 310 319 307 309 323 321 319 320 321 320 318 312 312 315 310 325 321 314 314 311 316 311 306 305 300 299 295 294 294
Wind_Speed
4 4 5 3 1 1 5 4 3 1 1 4 4 5 6 6 5 5 1 15 15 13 14 12 11 10 10 10 11 15 18 20 20 20 17 16 14 15 14 13 14 16 18
4 3 3 4 3 2 4 2 3 3 3 4 5 5 5 5 5 4 2 5 13 13 13 13 13 12 12 10 11 14 18 20 20 19 17 16 16 15 15 16 16 18 17
4 3 3 2 3 3 3 3 3 5 4 4 6 6 4 6 6 4 4 5 7 14 14 14 15 14 14 12 12 13 18 20 19 19 19 18 16 15 17 19 18 18 18
5 3 4 4 4 4 3 3 4 4 5 4 3 4 3 5 5 5 1 5 6 5 11 16 16 16 15 14 14 16 19 21 21 21 21 18 17 17 19 20 19 19 17
7 6 4 4 2 2 3 4 4 5 4 4 4 3 3 4 4 3 7 9 4 5 7 16 17 16 16 16 16 17 22 23 23 22 20 18 18 18 19 20 19 19 19
7 6 4 5 2 4 5 5 5 4 4 4 5 2 4 4 4 6 9 4 7 6 4 8 10 10 17 16 15 17 24 26 24 24 22 21 20 20 21 20 18 19 18
4 2 4 2 3 4 6 6 4 5 4 3 1 2 3 5 5 5 4 5 6 7 7 6 6 5 8 16 15 18 25 28 29 25 22 21 21 22 21 19 19 17 17
5 5 4 3 4 4 7 7 5 4 5 4 4 2 2 3 4 6 5 5 7 5 7 6 9 10 9 8 10 17 25 28 30 27 24 22 22 23 22 19 18 18 16
2 2 2 2 4 4 5 5 4 5 4 3 7 4 3 4 3 4 7 4 6 3 5 3 4 4 6 4 10 14 25 27 29 30 26 25 24 23 22 19 17 16 16
2 4 3 5 5 3 4 4 4 5 4 4 2 6 8 3 3 3 3 5 1 3 3 1 4 3 5 5 9 16 22 26 27 28 28 26 27 23 21 19 17 14 13
3 3 2 3 3 3 3 4 4 5 4 4 5 3 7 6 7 2 4 3 1 1 0 1 4 4 5 5 8 21 28 22 24 29 28 29 25 21 20 14 15 15 13
1 3 4 4 3 4 4 3 4 5 5 5 4 5 4 3 3 4 5 4 5 2 3 3 3 2 4 5 15 20 21 27 28 30 27 26 25 21 19 15 15 15 13
3 3 4 2 2 3 4 3 3 4 5 4 6 5 3 3 4 10 11 4 3 2 3 4 4 3 2 6 14 22 29 30 28 28 26 26 23 20 18 18 14 12 11
4 3 2 1 3 3 3 4 1 2 3 3 5 4 4 4 1 1 3 5 3 3 3 3 3 3 4 8 16 26 20 27 27 24 22 21 17 17 17 12 11 9 8
4 4 2 1 1 2 2 2 2 3 1 4 4 5 3 3 3 1 4 6 4 5 3 3 2 2 5 9 19 17 20 29 24 23 21 20 14 13 13 12 10 9 9
5 5 3 2 3 1 3 3 1 2 3 3 4 5 3 4 4 3 4 6 3 7 4 2 2 2 10 10 18 19 20 23 25 23 19 16 15 15 13 13 10 8 7
5 4 5 4 3 4 3 2 3 4 3 4 2 3 5 5 4 5 3 4 7 9 10 4 4 8 14 15 13 16 15 14 12 19 17 17 13 13 12 11 10 9 9
3 4 4 5 4 5 3 4 1 3 4 2 5 4 5 2 6 7 6 8 10 10 11 13 9 6 12 17 17 19 11 9 11 16 16 15 13 12 11 12 10 10 10
5 4 4 5 7 5 3 3 2 2 3 5 5 3 2 4 8 7 7 9 10 8 10 11 9 8 12 14 16 15 13 13 9 18 15 13 13 13 13 13 13 13 12
4 1 6 6 7 6 3 2 2 2 4 6 4 4 2 6 9 9 9 8 12 11 11 10 11 10 10 11 11 12 11 7 7 8 11 10 12 16 16 16 16 15 14
5 7 6 5 6 6 5 6 3 2 6 7 6 5 5 9 11 9 9 13 16 12 10 11 11 11 11 10 11 7 10 7 7 5 7 6 7 7 7 11 13 15 13
5 6 5 4 7 7 8 9 7 5 9 8 8 8 9 11 12 14 15 14 11 14 13 11 11 10 9 11 10 10 10 10 6 4 7 7 6 6 5 4 12 12 12
4 4 6 6 8 5 8 9 10 5 8 8 8 8 9 8 11 13 17 17 16 14 11 14 13 12 14 13 12 9 8 7 7 7 9 7 6 6 4 6 9 11 11
4 6 5 6 8 4 6 7 9 6 7 8 7 9 10 11 11 14 14 13 13 10 11 8 11 11 12 10 11 12 7 8 7 7 6 5 3 5 5 4 6 8 9
4 3 5 5 9 5 4 7 6 6 6 7 8 10 11 11 13 15 15 13 12 10 10 14 12 12 12 10 6 5 8 10 7 5 4 5 4 4 3 4 4 6 8
5 5 6 6 10 6 4 7 5 6 8 7 8 8 13 11 16 13 14 14 13 12 13 12 8 6 6 5 8 3 7 8 8 3 5 5 7 5 3 3 5 4 4
Wind_Direction
218 210 216 225 97 145 207 200 206 296 240 245 242 251 271 263 223 221 112 156 162 166 173 180 190 198 212 200 199 192 188 181 176 172 176 176 178 176 171 175 164 132 121
212 223 221 213 194 235 287 282 211 221 252 237 245 244 249 258 266 183 146 199 170 172 184 184 196 201 210 205 200 190 186 183 181 177 177 174 170 169 170 160 142 124 120
219 238 258 251 187 192 290 291 260 243 236 252 238 224 205 234 261 253 211 164 181 185 190 193 197 203 209 207 202 195 186 185 181 171 167 165 162 154 145 140 134 128 126
195 219 224 224 211 160 210 240 244 246 240 240 268 229 212 214 251 250 257 244 179 198 196 203 202 200 205 209 202 196 184 175 173 164 161 156 159 152 148 141 135 131 131
196 202 229 263 151 203 229 227 220 221 245 248 232 225 256 249 241 238 196 228 234 205 189 203 204 206 203 203 203 197 182 169 164 161 158 153 151 150 137 139 137 139 139
199 204 209 224 186 222 228 228 219 253 246 243 258 214 209 261 212 197 227 218 242 235 204 183 195 203 205 203 200 195 184 172 165 162 155 151 153 147 141 138 140 141 144
216 165 232 238 222 226 234 240 226 233 255 214 229 252 250 251 268 260 203 223 210 204 215 158 166 194 203 202 192 188 185 175 166 160 150 156 148 139 137 139 140 144 137
217 226 185 255 220 232 244 239 211 229 236 203 203 193 226 237 246 245 248 230 219 193 194 185 185 198 190 184 184 184 180 176 167 157 151 143 142 137 138 140 142 140 132
179 157 224 239 237 234 257 258 217 214 226 225 209 177 194 223 167 212 226 248 220 163 171 174 238 258 135 174 171 177 178 174 167 155 144 142 139 139 138 136 136 132 135
158 144 197 232 228 220 230 226 213 219 206 226 211 226 257 257 176 201 221 232 211 153 169 221 249 265 170 173 141 165 177 174 158 145 140 135 135 133 131 129 126 134 151
25 317 253 239 217 212 246 224 219 209 208 225 217 205 223 251 245 254 169 184 70 333 160 242 221 216 178 146 124 129 134 120 136 134 134 128 128 127 116 138 139 158 154
357 258 239 208 209 209 230 226 214 212 206 212 230 221 231 206 246 81 239 178 130 62 59 33 3 90 139 141 134 146 153 134 135 130 137 129 129 135 140 150 161 153 152
195 227 256 107 185 203 231 192 220 220 217 228 216 223 218 235 263 165 201 139 124 157 94 44 34 64 84 130 139 134 130 131 132 131 132 132 140 146 143 171 152 147 142
111 216 102 207 237 227 223 171 240 206 246 253 274 251 221 221 216 99 122 140 126 102 74 69 11 45 82 126 139 133 130 129 125 122 123 123 129 150 163 137 131 127 127
167 122 155 239 335 242 138 123 210 216 249 36 26 24 33 19 25 158 162 167 160 136 103 71 74 15 97 117 132 130 128 124 119 118 122 130 142 130 117 112 106 107 126
130 132 136 149 73 82 71 96 117 132 83 48 52 24 33 68 45 26 195 141 149 127 117 85 83 98 112 111 128 125 124 128 123 125 133 126 116 113 115 114 112 108 112
93 149 177 141 135 97 80 53 121 88 58 64 42 35 80 101 101 74 48 94 92 104 105 85 84 113 125 122 127 113 115 112 113 122 125 119 122 124 120 122 123 135 126
194 213 160 128 123 79 38 80 63 147 147 72 58 44 30 148 102 91 96 100 107 109 113 108 101 96 107 110 108 100 98 94 111 101 103 113 117 122 116 116 118 112 112
188 220 154 127 85 84 54 64 62 71 162 133 127 112 36 85 93 102 95 110 114 110 118 119 94 91 95 97 93 95 98 90 91 100 91 96 107 107 107 104 106 106 103
148 123 125 109 115 103 97 155 153 85 87 120 129 118 139 112 121 119 112 115 129 119 109 105 102 96 94 97 99 111 105 107 109 98 76 94 97 96 102 106 113 113 106
56 123 107 106 125 123 62 19 43 123 111 98 106 91 73 83 96 110 123 120 128 118 120 116 109 108 112 126 118 116 117 109 105 103 112 113 110 100 89 89 107 113 108
120 101 120 113 80 84 53 37 14 100 110 104 100 97 99 95 86 84 97 91 121 129 119 119 123 128 123 117 127 133 134 137 126 162 134 122 121 103 86 78 105 109 108
115 128 121 110 93 88 44 23 11 104 109 110 115 117 106 105 102 100 93 90 82 82 97 131 128 135 128 142 142 138 155 136 134 152 125 113 108 92 94 97 102 109 111
150 129 140 128 106 80 32 17 351 105 114 131 121 119 118 116 119 115 114 104 101 102 110 116 122 135 142 147 145 158 156 115 109 128 134 109 148 115 100 94 116 127 132
123 143 131 134 108 102 21 13 347 109 102 106 104 107 117 121 110 116 121 118 107 102 85 101 108 116 127 146 146 142 133 129 133 149 198 113 151 109 144 156 159 167 158
133 141 135 86 104 107 35 17 20 113 103 97 87 82 90 128 125 123 128 132 126 132 128 123 117 106 140 169 190 174 148 147 152 145 205 113 143 146 157 152 156 175 189